カタログに戻る

LEMUR 2 MARACHE-FRAN

運用中科学SSO
NORAD 63262·PAYLOAD·🇺🇸 United States

打ち上げ Mar 15, 2025 から Vandenberg Space Force Base

Loading…

次のパス (今後24時間)

TLE

最新Source: Space-Track

元期: Sep 14, 2026, 11:58 UTC

1 63262U 25052BE  26257.49882353  .00003994  00000-0  31924-3 0  9994
2 63262  97.6659 150.0050 0011287  63.3882 296.8497 15.00747415 82158

AllMySatでLEMUR 2 MARACHE-FRANをリアルタイム追跡

Download on the App Store